Temperature
-4 -4 -5 -5 -6 -6 -6 -6 -6 -5 -5 -5 -4 -4 -4 -3 -3 -3 -2 0 2 3 3 4 4 5 6 8 9 10 11 12 13 14 15 15 15 16 16 16 16 16 16
-6 -6 -6 -7 -7 -7 -7 -7 -7 -7 -7 -6 -6 -6 -5 -4 -4 -3 -3 -2 1 2 2 3 3 3 4 6 7 9 10 11 12 13 14 15 15 15 16 16 16 16 16
-6 -7 -7 -8 -8 -8 -8 -9 -8 -8 -8 -8 -7 -7 -6 -5 -5 -4 -3 -3 -1 0 1 2 2 2 3 4 6 8 9 10 12 13 14 14 15 15 15 16 16 16 16
-7 -8 -8 -9 -9 -9 -10 -9 -9 -9 -9 -9 -9 -8 -7 -7 -6 -5 -4 -3 -2 -2 -1 -1 0 1 2 3 5 7 8 9 11 12 13 14 15 15 15 15 16 16 16
-7 -9 -9 -10 -10 -10 -10 -10 -10 -10 -10 -10 -10 -9 -8 -8 -7 -5 -5 -4 -3 -3 -3 -2 -1 -0 1 3 4 6 7 9 10 11 12 13 14 15 15 15 15 16 16
-9 -9 -10 -10 -11 -11 -11 -11 -11 -11 -11 -11 -10 -10 -9 -8 -7 -6 -5 -4 -4 -4 -3 -3 -3 -2 -0 1 3 5 7 8 9 10 11 13 14 14 15 15 15 15 16
-9 -10 -11 -11 -11 -11 -11 -11 -11 -11 -11 -11 -11 -10 -10 -8 -7 -6 -5 -5 -4 -4 -4 -4 -4 -3 -1 -0 2 4 6 7 8 10 11 12 13 14 14 15 15 15 15
-10 -11 -11 -11 -11 -12 -12 -12 -12 -12 -12 -11 -12 -11 -10 -9 -6 -6 -7 -6 -5 -5 -5 -5 -4 -4 -3 -1 1 3 5 6 8 9 10 11 13 14 14 15 15 15 15
-10 -11 -11 -12 -12 -12 -12 -12 -12 -12 -12 -12 -12 -12 -12 -10 -10 -9 -7 -6 -6 -6 -6 -5 -5 -4 -3 -2 -0 2 3 5 7 8 9 10 12 13 14 14 15 15 15
-11 -11 -11 -12 -12 -12 -12 -12 -12 -12 -12 -12 -12 -12 -12 -12 -12 -10 -9 -8 -7 -7 -6 -6 -5 -4 -4 -3 -1 1 2 4 6 7 8 10 11 12 13 14 14 15 15
-11 -11 -11 -11 -12 -12 -12 -12 -12 -12 -12 -13 -13 -12 -12 -12 -12 -11 -10 -9 -8 -7 -6 -6 -6 -5 -4 -3 -2 -1 1 3 4 6 8 9 10 11 13 13 14 14 15
-11 -11 -11 -11 -11 -11 -12 -12 -12 -12 -12 -12 -13 -13 -12 -12 -12 -11 -10 -9 -8 -8 -7 -6 -6 -5 -4 -4 -3 -2 0 2 4 5 7 8 9 11 12 13 14 14 14
-11 -11 -11 -11 -11 -11 -11 -11 -11 -12 -12 -12 -12 -12 -12 -12 -12 -11 -11 -10 -9 -8 -7 -6 -5 -5 -4 -4 -4 -3 -0 1 3 4 6 7 9 10 11 12 13 14 14
-11 -11 -11 -11 -11 -11 -11 -11 -11 -11 -11 -11 -12 -12 -12 -12 -11 -11 -11 -10 -9 -8 -6 -5 -5 -5 -4 -4 -4 -3 -1 0 2 4 5 7 8 9 11 12 13 13 14
-12 -11 -11 -11 -11 -11 -11 -11 -11 -11 -11 -11 -11 -11 -11 -11 -11 -10 -10 -10 -9 -8 -7 -6 -5 -5 -5 -5 -4 -4 -3 -1 1 3 5 6 7 9 10 11 12 13 13
-12 -12 -11 -11 -11 -11 -11 -11 -11 -11 -11 -10 -10 -10 -10 -10 -10 -10 -10 -9 -9 -9 -8 -7 -6 -6 -5 -5 -5 -4 -3 -1 1 3 4 6 7 8 9 10 11 12 12
-12 -12 -12 -12 -11 -11 -11 -11 -11 -11 -11 -11 -11 -10 -10 -10 -10 -10 -9 -9 -9 -9 -8 -8 -7 -6 -6 -5 -5 -4 -3 -1 1 3 4 6 7 7 8 10 11 11 12
-12 -12 -12 -12 -11 -11 -11 -11 -11 -11 -11 -11 -11 -11 -11 -10 -10 -10 -10 -9 -9 -9 -9 -8 -8 -7 -6 -6 -5 -4 -3 -1 0 2 4 5 6 7 8 9 10 11 11
-12 -12 -12 -12 -12 -11 -11 -12 -12 -11 -12 -12 -12 -12 -12 -11 -11 -10 -10 -10 -10 -9 -9 -9 -8 -8 -7 -6 -5 -4 -2 -1 0 2 3 5 6 7 7 8 9 11 11
-12 -12 -12 -12 -12 -11 -11 -11 -12 -11 -12 -12 -12 -12 -12 -12 -11 -10 -10 -10 -10 -10 -10 -9 -9 -8 -7 -6 -5 -4 -2 -1 0 1 3 4 6 6 7 8 9 10 11
-11 -12 -12 -12 -12 -11 -11 -11 -11 -12 -12 -12 -12 -12 -12 -12 -11 -11 -11 -11 -11 -11 -10 -10 -9 -9 -8 -7 -5 -4 -2 -1 0 1 2 4 5 6 7 7 8 9 11
-11 -11 -11 -11 -11 -11 -11 -11 -11 -12 -12 -12 -13 -13 -12 -12 -12 -11 -11 -11 -11 -11 -11 -10 -10 -10 -9 -8 -6 -5 -3 -1 0 1 2 4 5 6 6 7 8 9 10
-10 -11 -11 -11 -12 -11 -11 -11 -11 -11 -12 -12 -13 -13 -13 -12 -12 -11 -12 -12 -12 -11 -11 -11 -11 -10 -10 -9 -7 -5 -4 -2 0 1 2 4 5 6 6 7 8 9 10
-10 -10 -11 -11 -11 -11 -11 -11 -11 -11 -11 -12 -13 -13 -13 -12 -12 -11 -12 -12 -12 -11 -11 -11 -11 -11 -10 -9 -7 -6 -4 -2 -1 1 2 3 5 5 6 7 7 8 9
-9 -10 -11 -11 -11 -11 -10 -11 -10 -11 -11 -12 -12 -13 -13 -12 -12 -12 -12 -12 -12 -11 -11 -11 -11 -10 -9 -8 -7 -5 -4 -3 -1 1 2 3 4 5 6 6 7 8 9
-9 -10 -10 -10 -10 -10 -10 -10 -10 -10 -11 -12 -12 -12 -13 -12 -12 -12 -13 -13 -12 -12 -11 -10 -10 -10 -9 -8 -7 -5 -4 -3 -1 0 1 3 4 5 6 6 7 7 8
Wind_Speed
15 16 16 16 17 17 17 18 18 20 20 19 19 20 20 20 20 20 18 23 26 26 26 25 24 24 24 24 25 25 25 25 25 25 30 34 35 36 36 35 33 32 31
15 16 17 17 17 17 18 19 20 19 18 18 19 20 21 21 20 20 20 21 24 24 23 23 22 22 22 23 24 24 25 25 26 25 27 32 35 36 37 37 35 34 33
17 17 16 16 17 18 20 19 20 18 16 17 18 19 19 20 20 21 21 19 19 20 20 20 19 20 21 22 23 23 24 24 25 25 25 30 34 36 37 38 37 36 34
17 17 16 17 18 19 18 17 15 15 15 16 17 16 16 18 20 21 20 19 17 16 15 15 16 18 19 21 22 23 23 23 24 24 25 28 33 36 37 38 38 37 37
18 18 16 17 19 18 17 16 14 15 17 17 17 17 17 17 17 19 18 17 16 15 13 12 15 17 18 19 21 22 23 23 23 24 24 26 30 35 37 38 38 38 38
18 18 16 18 18 16 14 15 17 17 16 17 17 18 17 18 17 16 15 12 12 13 12 12 13 14 16 18 19 21 23 23 24 24 24 24 28 33 36 37 38 39 38
18 17 16 17 17 14 16 17 17 18 17 16 17 18 18 18 16 12 9 10 11 11 11 12 13 13 13 16 18 19 21 23 24 24 23 23 25 31 35 36 37 38 39
17 16 17 17 17 15 17 17 17 16 16 15 15 17 14 14 8 8 11 11 11 9 10 13 14 14 14 13 15 19 20 21 22 24 23 22 23 27 34 36 36 38 39
17 17 18 18 19 17 16 18 18 19 16 16 14 11 10 10 14 11 12 10 9 10 12 12 14 14 15 14 14 15 17 20 22 22 23 22 21 24 31 35 36 37 38
17 17 18 19 19 18 17 18 17 17 18 16 14 13 13 14 12 10 10 12 14 14 13 12 12 13 15 13 14 16 18 19 21 22 22 21 20 21 27 33 35 36 37
16 17 18 19 19 17 18 18 18 17 15 15 14 14 14 14 14 14 15 14 13 12 12 13 12 12 13 13 12 14 16 18 20 20 19 19 19 19 21 30 34 36 36
14 17 19 19 19 18 18 18 17 17 15 16 14 13 13 12 12 12 14 15 14 13 14 13 12 11 10 12 13 14 16 18 19 19 18 18 17 16 17 22 30 34 36
13 16 19 19 19 19 20 18 16 15 15 15 14 12 12 13 13 13 13 14 16 14 15 12 10 9 10 10 10 12 16 18 18 18 18 17 16 14 14 16 23 32 35
13 18 20 19 20 20 19 17 14 14 13 13 14 14 12 12 12 12 12 13 14 14 13 13 10 10 8 8 12 16 15 17 18 18 18 17 15 13 11 12 14 23 30
15 18 19 18 19 19 18 17 13 14 13 12 12 13 11 11 11 11 11 11 12 13 14 14 11 10 9 10 14 14 14 17 18 19 19 17 15 13 11 10 10 14 20
16 17 17 17 17 17 17 15 15 15 15 13 11 11 11 10 9 9 9 10 10 12 14 13 13 14 13 12 16 16 15 19 21 20 19 17 15 13 10 9 9 13 16
16 15 16 16 16 16 16 14 15 15 15 14 13 13 13 13 10 9 9 9 9 10 13 14 14 14 16 15 14 13 13 13 13 17 18 17 15 12 10 9 9 12 16
15 15 16 15 15 15 15 14 14 14 14 14 15 14 15 13 15 12 11 12 11 11 12 16 15 14 16 15 14 14 12 11 11 14 16 16 15 12 10 10 10 11 17
14 15 15 15 15 14 15 13 12 12 13 13 14 14 15 15 16 14 14 13 12 12 12 13 14 13 12 12 12 12 12 11 11 12 14 16 15 12 11 10 10 11 17
13 14 15 15 15 14 13 11 9 10 11 13 13 14 14 15 16 17 14 14 13 13 12 12 12 12 11 11 8 7 8 8 9 9 11 11 12 12 11 11 11 11 16
13 14 15 16 15 13 13 11 5 8 10 12 13 14 15 18 21 17 13 14 14 12 11 11 11 10 9 9 7 6 7 7 8 7 7 9 9 8 8 9 10 11 14
13 13 14 15 16 13 20 20 9 8 10 12 13 14 15 16 21 21 19 19 17 14 12 10 10 10 11 10 9 8 7 5 5 3 5 7 8 8 7 7 7 9 12
13 13 14 14 15 17 23 23 15 11 11 12 13 14 13 16 20 15 14 18 17 17 15 12 11 11 12 11 11 10 8 6 5 4 3 4 7 9 7 7 8 9 11
12 12 13 15 15 17 22 24 19 12 10 11 12 14 15 16 17 18 14 14 14 11 12 11 10 10 10 11 10 9 10 10 9 7 5 3 4 6 7 6 10 10 11
12 12 13 14 15 16 21 24 21 11 9 11 11 13 15 16 22 24 17 15 16 13 13 16 15 13 13 13 11 7 7 5 4 2 1 2 1 3 5 5 7 10 11
12 12 13 13 14 15 20 23 22 9 9 10 11 12 15 20 23 23 16 15 16 15 14 14 12 12 10 10 10 6 6 5 4 2 3 3 1 1 3 2 4 6 7
Wind_Direction
329 327 323 321 319 319 319 318 315 315 312 310 307 306 304 302 298 295 293 293 294 295 295 293 291 289 288 287 286 285 284 279 274 260 241 230 222 212 205 201 198 196 194
326 323 320 318 317 317 317 313 310 310 308 308 305 304 301 299 294 293 291 292 290 289 289 290 289 289 289 289 286 285 282 280 273 267 250 234 226 218 210 204 199 198 197
327 324 319 318 317 317 315 311 310 308 307 306 304 303 300 297 294 291 290 288 286 284 282 284 289 291 290 290 290 288 285 283 276 269 259 240 228 221 214 207 202 199 198
331 326 321 318 318 317 314 312 310 310 308 307 305 303 301 296 291 290 288 282 278 278 278 281 290 292 292 292 290 290 290 286 282 272 264 249 233 223 217 212 205 201 199
332 328 321 318 320 317 314 311 310 309 307 306 304 302 299 295 291 287 282 277 272 270 273 283 291 291 291 290 290 290 293 290 287 278 270 257 239 225 218 214 209 205 202
331 328 321 321 320 316 314 313 311 307 304 304 304 301 298 293 283 277 274 272 270 268 272 289 295 292 290 290 291 291 289 290 292 286 275 264 247 229 219 214 211 208 204
329 326 322 320 318 314 312 309 308 306 305 305 305 305 303 290 276 271 273 280 276 275 280 291 293 295 293 291 291 290 288 288 290 291 282 269 256 235 221 215 211 209 207
325 322 319 317 314 312 309 308 308 305 303 303 305 307 310 307 277 313 299 283 278 288 294 293 293 291 290 291 288 290 290 288 288 290 288 276 262 243 225 216 212 209 208
321 319 317 316 313 312 308 307 306 302 301 301 295 294 298 300 323 297 290 285 294 301 295 292 290 288 289 286 285 284 289 292 291 289 288 281 268 251 232 219 213 209 207
320 319 318 317 314 312 308 307 303 299 297 296 294 287 278 283 288 298 297 300 298 291 291 292 290 288 285 283 278 281 286 291 290 290 287 284 271 259 238 223 215 211 207
322 322 324 322 320 316 312 309 304 299 294 291 290 289 284 281 273 273 286 294 295 293 291 291 288 285 284 280 278 278 288 293 292 292 292 292 279 265 251 230 217 212 208
324 327 329 327 325 321 317 315 308 302 296 290 287 283 281 279 279 278 284 292 295 296 294 290 284 281 281 281 277 282 291 295 294 296 298 297 292 277 268 245 224 213 208
326 328 330 328 327 326 322 319 313 307 300 294 286 282 278 274 274 274 276 284 290 294 292 287 280 282 282 280 282 290 293 292 292 295 298 299 300 289 279 268 237 217 208
323 324 326 326 327 329 328 327 321 316 306 297 289 283 277 274 272 270 272 279 288 294 294 292 294 288 285 289 288 294 287 284 287 291 293 294 295 294 285 280 260 226 210
322 323 325 327 329 331 332 332 330 329 322 310 298 291 284 279 276 272 270 270 277 291 297 301 301 298 299 291 287 285 281 281 283 284 285 284 286 290 285 284 263 230 211
324 324 327 329 331 332 332 331 333 337 336 333 325 314 303 296 292 289 284 281 277 280 288 293 298 298 298 291 286 281 276 277 275 273 272 271 272 276 281 276 260 214 198
324 326 327 328 330 331 331 331 335 336 335 336 337 334 332 325 321 318 312 303 298 292 291 294 297 299 298 294 288 278 271 266 263 260 260 261 261 263 271 270 254 211 190
325 326 327 327 328 329 327 326 331 333 333 333 333 332 331 331 330 328 324 316 310 303 297 298 299 300 299 297 289 279 268 258 253 251 249 252 252 251 256 263 252 214 190
324 326 326 325 325 325 323 319 326 328 332 331 330 330 329 328 329 330 328 324 319 313 303 297 299 301 300 298 293 279 265 253 250 245 241 242 241 238 242 253 252 220 193
324 324 323 322 322 321 319 307 310 323 329 332 331 330 328 325 326 327 329 329 325 317 309 303 302 305 304 307 294 285 274 251 244 238 231 228 225 224 227 240 245 224 198
322 321 321 321 321 322 318 314 295 323 331 334 335 332 327 327 329 330 332 332 329 322 315 312 308 310 316 323 318 307 292 279 248 234 227 220 211 209 213 225 235 219 196
321 320 318 317 319 320 321 332 337 333 336 337 337 334 330 329 330 330 331 333 331 326 324 319 311 312 316 321 321 317 309 287 239 214 235 222 204 201 203 212 214 207 192
317 316 316 317 317 319 323 328 333 333 333 337 337 334 334 333 334 328 335 336 329 326 329 324 312 312 313 319 319 317 315 305 289 313 275 220 199 201 195 204 199 202 191
315 312 314 318 319 319 323 325 328 325 327 334 334 333 334 334 333 345 343 335 329 330 328 322 314 312 311 313 313 306 300 297 282 264 257 233 190 194 186 190 188 192 187
312 311 316 319 320 320 320 321 326 321 326 330 335 336 337 338 341 350 348 339 335 338 336 331 329 325 324 324 330 322 312 297 270 247 268 279 195 178 171 182 183 181 177
312 316 318 321 319 317 319 321 329 328 329 333 339 339 340 346 349 352 351 345 342 343 338 334 333 333 333 331 338 332 315 302 295 304 2 338 341 147 141 152 172 173 170
Height
1542 1537 1532 1526 1521 1516 1511 1506 1501 1496 1491 1487 1483 1479 1475 1471 1468 1465 1461 1459 1457 1456 1454 1454 1455 1456 1458 1460 1462 1465 1468 1471 1475 1479 1483 1488 1494 1499 1504 1509 1514 1519 1525
1538 1533 1528 1523 1518 1512 1506 1501 1496 1490 1485 1481 1476 1472 1468 1464 1461 1458 1455 1452 1450 1448 1447 1447 1447 1448 1449 1451 1453 1456 1459 1463 1466 1471 1475 1480 1486 1491 1497 1503 1508 1514 1519
1535 1530 1524 1519 1514 1508 1502 1496 1491 1486 1480 1475 1470 1465 1461 1457 1454 1451 1448 1445 1443 1441 1440 1439 1439 1440 1441 1442 1445 1447 1451 1454 1458 1462 1466 1472 1478 1483 1489 1495 1502 1508 1513
1532 1526 1521 1515 1509 1504 1498 1492 1487 1481 1475 1470 1464 1459 1454 1450 1446 1443 1441 1438 1436 1435 1434 1432 1431 1432 1432 1434 1436 1439 1442 1445 1449 1453 1458 1463 1469 1475 1481 1488 1494 1501 1507
1528 1523 1517 1511 1506 1500 1494 1489 1483 1478 1471 1465 1459 1453 1448 1443 1439 1436 1434 1432 1430 1429 1428 1427 1425 1424 1424 1425 1427 1430 1433 1437 1440 1445 1449 1454 1460 1467 1473 1479 1486 1493 1500
1525 1519 1513 1508 1502 1496 1491 1486 1480 1474 1468 1462 1455 1448 1442 1436 1432 1429 1427 1426 1424 1424 1423 1421 1419 1418 1417 1418 1419 1421 1424 1429 1432 1436 1441 1445 1451 1458 1464 1471 1478 1485 1492
1522 1516 1510 1505 1499 1493 1487 1481 1476 1470 1464 1458 1451 1443 1436 1431 1427 1424 1422 1421 1419 1419 1417 1415 1413 1412 1411 1411 1411 1413 1416 1420 1424 1428 1432 1437 1442 1448 1455 1462 1469 1477 1484
1519 1513 1507 1502 1496 1489 1483 1478 1472 1466 1460 1455 1450 1442 1433 1428 1422 1420 1417 1416 1415 1413 1411 1409 1408 1406 1405 1404 1404 1406 1408 1412 1416 1420 1424 1429 1434 1439 1446 1454 1461 1468 1476
1516 1510 1504 1498 1492 1486 1479 1474 1468 1462 1455 1451 1447 1442 1436 1427 1423 1417 1415 1412 1410 1408 1406 1403 1401 1400 1399 1398 1398 1399 1401 1404 1408 1412 1416 1421 1426 1431 1437 1445 1452 1460 1468
1513 1507 1501 1495 1489 1483 1476 1469 1463 1457 1451 1445 1441 1438 1434 1429 1425 1416 1412 1409 1406 1403 1400 1398 1396 1394 1393 1392 1392 1393 1395 1397 1400 1405 1409 1413 1418 1423 1428 1435 1443 1451 1460
1511 1505 1499 1492 1486 1479 1472 1465 1458 1452 1447 1441 1437 1433 1429 1426 1422 1417 1410 1405 1402 1399 1396 1393 1390 1389 1388 1387 1386 1387 1388 1390 1393 1397 1401 1405 1409 1415 1420 1427 1434 1443 1451
1508 1502 1496 1490 1483 1476 1469 1462 1454 1448 1442 1437 1432 1428 1424 1421 1417 1414 1408 1402 1397 1394 1391 1388 1386 1384 1383 1382 1381 1381 1381 1383 1387 1390 1394 1398 1402 1407 1412 1418 1426 1434 1442
1505 1499 1493 1487 1480 1474 1466 1459 1452 1445 1438 1433 1428 1423 1420 1416 1413 1410 1406 1400 1395 1390 1386 1384 1382 1380 1378 1377 1376 1375 1375 1377 1380 1383 1387 1391 1395 1400 1405 1411 1418 1425 1434
1502 1496 1490 1484 1478 1472 1465 1458 1450 1443 1436 1430 1424 1420 1415 1411 1408 1405 1402 1398 1392 1387 1383 1380 1378 1376 1375 1373 1371 1370 1370 1372 1374 1377 1381 1385 1389 1393 1399 1404 1409 1417 1425
1500 1494 1488 1482 1476 1470 1463 1457 1450 1443 1436 1429 1423 1417 1412 1408 1404 1401 1397 1395 1392 1385 1379 1376 1374 1372 1371 1368 1366 1365 1365 1366 1368 1371 1375 1379 1384 1388 1392 1397 1403 1409 1416
1497 1491 1485 1480 1474 1468 1462 1456 1450 1443 1436 1429 1423 1417 1412 1407 1402 1398 1394 1391 1388 1384 1377 1372 1370 1368 1365 1363 1362 1361 1360 1360 1362 1365 1369 1374 1379 1383 1387 1392 1397 1403 1409
1495 1489 1483 1477 1471 1465 1460 1454 1448 1441 1435 1429 1423 1417 1412 1407 1402 1397 1392 1388 1384 1380 1374 1368 1365 1362 1360 1358 1356 1355 1354 1355 1357 1360 1364 1369 1373 1378 1382 1386 1392 1397 1403
1492 1486 1480 1475 1469 1463 1457 1452 1446 1440 1433 1427 1421 1416 1410 1405 1400 1395 1390 1385 1381 1376 1372 1365 1360 1357 1354 1352 1350 1349 1349 1351 1352 1355 1358 1363 1368 1373 1377 1382 1387 1392 1398
1489 1484 1478 1472 1466 1460 1455 1450 1444 1438 1432 1426 1419 1414 1408 1404 1398 1393 1388 1383 1378 1373 1368 1363 1357 1353 1349 1347 1345 1344 1345 1346 1348 1350 1353 1357 1363 1369 1373 1378 1383 1388 1394
1487 1481 1475 1469 1463 1458 1452 1447 1442 1436 1430 1424 1418 1412 1407 1402 1397 1391 1386 1380 1375 1369 1364 1360 1354 1349 1346 1343 1341 1341 1342 1343 1344 1346 1349 1353 1358 1364 1369 1374 1379 1384 1391
1484 1478 1472 1466 1461 1455 1449 1445 1439 1434 1428 1422 1416 1410 1405 1400 1395 1390 1384 1378 1372 1366 1361 1357 1352 1347 1343 1340 1339 1338 1338 1339 1341 1343 1345 1349 1353 1359 1364 1370 1375 1380 1386
1482 1476 1469 1463 1458 1452 1447 1443 1437 1432 1427 1421 1414 1408 1403 1398 1392 1386 1381 1375 1369 1364 1359 1354 1349 1345 1341 1339 1336 1335 1336 1337 1339 1340 1342 1345 1349 1355 1360 1365 1370 1376 1381
1480 1474 1467 1461 1456 1450 1445 1441 1435 1430 1425 1419 1413 1408 1402 1396 1390 1383 1377 1371 1365 1360 1356 1351 1346 1342 1339 1336 1334 1333 1333 1334 1334 1336 1339 1342 1346 1351 1356 1361 1366 1372 1378
1478 1472 1466 1460 1455 1449 1443 1438 1433 1428 1422 1417 1412 1407 1401 1395 1389 1382 1375 1368 1362 1357 1351 1346 1343 1339 1336 1333 1332 1331 1331 1331 1332 1333 1336 1339 1343 1348 1353 1358 1363 1369 1374
1476 1470 1465 1459 1454 1448 1441 1435 1430 1425 1420 1415 1411 1405 1400 1394 1388 1381 1373 1366 1360 1354 1348 1343 1338 1334 1332 1330 1329 1330 1330 1331 1331 1332 1334 1337 1340 1344 1350 1355 1360 1366 1372
1474 1469 1464 1459 1453 1446 1440 1434 1428 1423 1418 1414 1409 1404 1399 1393 1386 1380 1373 1366 1359 1352 1345 1339 1335 1332 1329 1327 1327 1327 1327 1329 1329 1331 1332 1335 1337 1342 1347 1352 1357 1363 1370